Location: Grandview Police Department
(32.2701°N, 97.1793°W)
Time: 04:00:25
(UTC+00:00)

Daily predictions for brighter satellites

Satellite Brightness Start Highest point End
(mag) Time Altitude Azimuth Time Altitude Azimuth Time Altitude Azimuth
Cosmos 2233 Rocket 4.2 01:41:14 10° N 01:47:34 82° W 01:53:52 10° S
Resurs 01 Rocket 2.8 01:46:51 10° SE 01:50:30 26° ENE 01:54:09 10° NNE
Cosmos 1602 4.2 01:51:01 10° NNW 01:54:33 58° W 01:58:02 10° S
Cosmos 2237 Rocket 3.6 01:50:43 10° SW 01:56:07 44° WNW 02:01:33 10° N
SL-24 R/B - RUBIN 2 4.4 01:51:03 10° SSW 01:56:50 87° ESE 02:03:20 10° NNE
Cosmos 1782 2.8 01:56:10 10° S 01:59:51 55° E 02:03:36 10° NNE
BREEZE-M DEB (TANK) 4.2 01:58:04 10° W 02:00:55 39° NNW 02:05:21 10° NE
Meteor 2-14 Rocket 4.5 01:58:53 10° S 02:05:02 82° E 02:11:11 10° N
OAO 2 Rocket 3.7 01:59:50 10° WNW 02:05:07 70° N 02:10:22 10° E
H-2A R/B 0.4 02:03:46 10° SW 02:05:40 27° S 02:06:29 17° ESE
Okean O Rocket 2.5 02:02:08 10° SE 02:06:03 32° ENE 02:09:59 10° N
Cosmos-2242 2.9 02:02:57 10° S 02:07:08 85° E 02:11:22 10° N
USA 290 4.3 02:11:10 10° NNE 02:13:01 14° ENE 02:14:20 12° E
Aureole 2 3.8 02:13:40 10° NNW 02:16:32 77° ENE 02:19:09 12° SSE
Feng Yun 1-1 Rocket 4.4 02:13:57 10° SSE 02:19:46 69° ENE 02:25:39 10° N
DELTA 2 DEB (DPAF) 4.0 02:19:20 10° NNE 02:23:34 86° W 02:27:47 10° SSW
SL-8 R/B 4.3 02:21:13 10° WSW 02:25:54 60° NW 02:30:36 10° NE
Cosmos 1943 Rocket 2.2 02:21:02 10° NNW 02:26:42 81° ENE 02:31:46 13° SSE
SPOT 1/Viking Rocket 4.1 02:22:46 10° S 02:27:51 60° W 02:32:57 10° NNW
FALCON 9 R/B 2.7 02:33:06 10° W 02:37:02 73° N 02:49:21 10° E
Cosmos 192 4.5 02:32:29 10° NNW 02:37:25 76° WSW 02:41:48 13° S
Cosmos 494 Rocket 4.5 02:33:50 11° SSE 02:38:12 36° E 02:42:50 10° NE
Cosmos 2221 2.8 02:36:34 17° SSE 02:39:34 45° E 02:43:41 10° NNE
CZ-4B R/B 3.5 02:36:12 10° S 02:41:31 64° WSW 02:46:48 10° NNW
ATLAS 3B R/B 3.4 02:36:25 10° NNW 02:44:03 52° NE 02:48:59 22° ESE
USA 186 3.4 02:42:52 10° SSW 02:45:41 32° W 02:48:35 10° NNW
Okean-O 3.0 02:43:48 26° SE 02:45:55 45° ENE 02:50:08 10° N
Centaur D AC-29 2.6 02:42:33 10° SW 02:46:26 39° SSE 02:57:40 10° E
Cosmos 2278 Rocket 3.6 02:41:38 10° NW 02:46:44 36° WSW 02:51:49 10° SSW
Cosmos 1464 Rocket 4.0 02:41:17 10° N 02:47:35 89° W 02:53:29 11° S
ATLAS 5 CENTAUR R/B 4.2 02:43:47 10° WNW 02:48:32 26° WSW 02:53:58 10° SSW
CZ-4C R/B 3.2 02:46:04 10° NNE 02:49:55 73° ESE 02:53:10 15° S
CARTOSAT-1 3.9 02:46:38 14° S 02:50:17 64° W 02:54:32 10° NNW
Meteor 1-26 Rocket 4.5 02:50:42 10° S 02:56:42 81° W 03:02:46 10° N
Cosmos 921 Rocket 3.0 02:53:31 10° SSW 02:57:58 86° E 03:02:28 10° NNE
Cosmos 1371 Rocket 4.4 02:55:31 10° N 03:00:41 48° ENE 03:02:41 33° ESE
OAO 3 Copernicus 4.2 02:55:42 10° WNW 03:00:45 82° SSW 03:02:55 35° ESE
Lacrosse 5 2.0 02:58:38 10° NNW 03:03:42 61° NE 03:05:39 35° ESE
Cosmos 1378 4.5 03:00:43 10° SSW 03:03:43 33° W 03:06:43 10° NNW
MOS 1 4.3 03:01:42 29° SSE 03:04:42 67° ENE 03:10:19 10° N
Cosmos 1420 Rocket 4.0 03:03:49 10° NNW 03:09:08 72° ENE 03:11:13 37° SSE
OAO 1 4.4 03:04:50 10° WSW 03:10:17 71° SSE 03:13:34 24° E
Terra 2.8 03:11:35 27° E 03:12:02 28° ENE 03:16:01 10° NNE
SL-16 R/B 4.0 03:10:44 10° SW 03:15:45 32° WNW 03:20:48 10° N
IRS-1A Rocket 4.4 03:16:28 39° SE 03:18:21 57° ENE 03:23:48 10° N
Cosmos 1603 4.0 03:17:41 40° ESE 03:18:23 42° ESE 03:23:42 10° NE
USA 308 4.2 03:16:58 10° W 03:19:18 20° SW 03:19:18 20° SW
Cosmos 1743 3.1 03:16:08 10° N 03:19:07 45° NE 03:19:07 45° NE
Meteor 2-6 Rocket 4.1 03:16:48 26° S 03:20:05 80° E 03:25:38 10° N
Spot 2 Rocket 4.3 03:20:07 31° E 03:20:36 32° ENE 03:25:01 10° N
GEOS 3 Rocket 3.4 03:16:26 10° NE 03:21:33 69° ESE 03:26:04 13° SSW
Cosmos 1634 Rocket 4.1 03:15:24 10° N 03:21:33 55° E 03:23:26 41° SE
SPOT 5 2.6 03:21:11 51° SSE 03:22:17 76° ENE 03:26:47 10° N
Resurs 01 Rocket 3.8 03:23:25 10° SSW 03:26:49 22° W 03:30:14 10° NW
NOSS 3-1 (A) 4.3 03:22:29 10° NNW 03:30:32 77° WSW 03:35:18 33° SSE
Gbstr 26 Del rocket 4.5 03:26:20 10° WNW 03:31:26 33° SW 03:32:47 28° SSW
Cosmos 2369 Rocket 2.3 03:28:09 10° N 03:33:37 54° ENE 03:34:31 49° E
Cosmos 1726 4.3 03:36:06 10° NNE 03:36:42 14° NNE 03:36:42 14° NNE
Okean 3 Rocket 4.0 03:36:13 10° N 03:39:52 48° NE 03:39:52 48° NE
Cosmos 1842 Rocket 3.5 03:40:11 76° SSW 03:40:31 83° W 03:44:58 10° N
Okean O Rocket 4.0 03:39:23 10° SW 03:42:19 17° W 03:45:17 10° NW
Ariane Rocket 3.2 03:43:07 53° ENE 03:43:13 53° ENE 03:48:08 10° N
BREEZE-M DEB (TANK) 4.4 03:19:13 10° SW 03:45:07 86° NW 03:50:06 10° NE
USA 229 DEB 4.3 03:38:29 10° NNW 03:46:01 55° ENE 03:48:32 41° ESE
USA 229 4.3 03:38:35 10° NNW 03:46:07 54° ENE 03:48:38 41° ESE
ARGOS Delta rocket 3.8 03:46:25 72° SSE 03:46:57 87° E 03:51:55 10° N
OAO 2 Rocket 3.6 03:44:42 10° W 03:49:36 57° SW 03:49:36 57° SW
Cosmos 1656 Rocket 3.6 03:45:05 10° NNW 03:50:34 78° WSW 03:51:20 65° S
Meteor 1-27 Rocket 4.1 03:51:15 46° ENE 03:51:15 46° ENE 03:55:52 10° NNE
Cosmos 1943 3.9 03:49:57 10° SW 03:55:28 51° WNW 04:01:00 10° N
Cosmos 2056 Rocket 4.2 03:51:32 10° NNW 03:56:38 46° WSW 03:57:41 41° SW
Cosmos 1452 Rocket 4.1 03:55:35 10° N 04:00:07 45° NE 04:00:07 45° NE
Cosmos 2142 Rocket 4.4 03:56:50 10° N 04:03:10 69° E 04:03:39 66° ESE
Cosmos 44 4.2 04:04:18 10° NW 04:08:06 37° W 04:08:06 37° W
ERS-1 Rocket 3.6 04:15:22 47° WSW 04:15:26 47° W 04:20:17 10° NNW
USA 59 Rocket 2.7 04:29:19 10° NNE 04:30:55 13° NE 04:30:55 13° NE
MOS 1 Rocket 4.2 04:34:16 50° WNW 04:34:16 50° WNW 04:38:34 10° NNW
ATLAS 3B R/B 4.1 04:27:53 10° NW 04:34:26 30° WSW 04:36:15 27° SW
USA 281 3.1 04:36:16 82° ENE 04:36:16 82° ENE 04:42:52 10° NNW
Lacrosse 5 4.2 04:43:12 10° W 04:44:52 14° W 04:44:52 14° W
Terra 3.8 04:50:17 22° W 04:50:17 22° W 04:53:13 10° NW
Meteor 1-11 Rocket 4.5 04:47:56 10° NNW 04:52:46 48° WNW 04:52:46 48° WNW
Nadezhda 4 Rocket 4.4 04:54:10 54° W 04:54:10 54° W 05:00:12 10° N
Chandra Rocket (1) 3.9 04:51:56 10° W 05:08:13 61° SW 05:08:13 61° SW
CZ-3 Stage 3 3.8 04:42:39 10° WSW 05:15:44 67° S 05:16:07 67° SSE
Cosmos 2369 Rocket 4.4 05:13:54 10° WNW 05:16:18 15° W 05:16:18 15° W
USA 267 3.7 05:47:02 10° NE 05:52:17 57° N 05:52:17 57° N
Cosmos 1697 Rocket 4.3 06:07:35 10° N 06:10:49 29° NNE 06:10:49 29° NNE
Cosmos 1980 Rocket 4.3 06:15:36 10° NNE 06:19:10 20° NE 06:19:10 20° NE
USA 59 Rocket 2.8 06:16:32 10° NW 06:17:27 17° NW 06:17:27 17° NW
Cosmos 2082 Rocket 3.6 06:54:16 35° NNE 06:54:16 35° NNE 06:57:29 10° NNE
Resurs 1-4 Rocket 4.3 07:17:55 10° NE 07:20:14 18° ENE 07:20:14 18° ENE
Cosmos 1745 Rocket 4.3 07:47:13 61° NE 07:47:13 61° NE 07:52:29 10° N
NOSS 3-4 (A) 4.0 07:50:04 10° NW 07:56:34 68° WNW 07:56:34 68° WNW
NOSS 3-4 (C) 4.0 07:50:10 10° NNW 07:56:43 69° WNW 07:56:43 69° WNW
NPP 4.4 07:52:26 10° NNE 07:56:33 48° NE 07:56:33 48° NE
ATLAS CENTAUR R/B 3.9 07:47:44 10° NW 07:59:39 65° WSW 07:59:39 65° WSW
Cosmos 1980 Rocket 3.8 07:58:28 10° NNW 08:00:53 25° NW 08:00:53 25° NW
SJ 16-02 3.3 08:06:53 25° NE 08:06:53 25° NE 08:09:06 10° NE
USA 234 3.3 08:05:25 55° ESE 08:06:57 76° NE 08:13:30 10° NW
ADEOS II 3.3 08:03:22 10° NE 08:07:43 33° E 08:07:43 33° E
IDEFIX/ARIANE 42P 3.1 08:07:22 10° NNE 08:11:29 56° NNE 08:11:29 56° NNE
Nadezhda 1 Rocket 4.0 08:10:36 10° N 08:16:37 79° NNW 08:16:37 79° NNW
CZ-2C R/B 3.3 08:26:33 10° NNE 08:32:20 70° E 08:32:29 69° ESE
SL-16 R/B 2.5 08:29:16 10° NNW 08:34:53 64° ENE 08:36:03 52° ESE
Cosmos 968 Rocket 4.0 08:41:59 49° NW 08:41:59 49° NW 08:46:11 10° N
AQUA 4.1 08:39:26 10° NNE 08:43:54 61° E 08:43:54 61° E
CZ-2D R/B 2.3 08:42:41 10° N 08:47:51 60° WNW 08:47:51 60° WNW
CRYOSAT 2 4.4 08:43:14 10° N 08:47:46 76° N 08:47:46 76° N
Cosmos 1709 Rocket 4.2 08:48:17 52° W 08:48:20 52° W 08:54:31 10° N
BREEZE-M R/B 4.2 08:47:03 37° WNW 08:48:42 48° NNW 09:00:59 10° NE
SL-16 R/B 3.3 08:46:58 13° SE 08:52:14 49° ENE 08:58:14 10° N
Meteor 1-24 Rocket 3.9 08:51:31 60° SSE 08:52:38 79° E 08:58:40 10° N
OAO 3 Rocket 3.4 08:54:36 62° NNW 08:55:05 66° N 08:59:57 10° E
Cosmos 2237 4.0 08:49:36 10° NNW 08:55:19 73° WSW 08:55:27 73° WSW
Cosmos 2360 Rocket 3.2 08:51:07 10° N 08:56:32 44° ENE 09:01:54 10° SE
Cosmos 841 Rocket 4.4 08:52:53 10° NNW 08:56:15 35° WNW 08:56:15 35° WNW
Resurs 1-4 Rocket 2.7 08:56:36 10° N 09:01:18 40° WNW 09:01:18 40° WNW
Cosmos 2181 Rocket 4.2 08:55:17 10° N 09:01:36 68° E 09:04:59 28° SSE
SL-4 R/B 2.4 09:06:31 59° NNW 09:06:31 59° NNW 09:10:37 10° NE
Tiangong -0.1 09:08:06 27° ENE 09:08:06 27° ENE 09:09:41 10° ENE
FENGYUN 3A 3.7 09:07:38 10° N 09:12:54 58° WNW 09:13:35 53° WSW
CZ-2C R/B 2.8 09:15:09 48° W 09:15:09 48° W 09:19:52 10° NNW
IRAS Rocket 4.1 09:10:48 10° NNE 09:16:19 86° WNW 09:17:50 50° SSW
Cosmos 2278 4.4 09:11:37 10° NW 09:15:52 35° W 09:15:52 35° W
Cosmos 2098 Rocket 3.8 09:12:31 10° N 09:18:09 86° W 09:21:18 32° S
SL-8 R/B 3.6 09:15:17 10° NW 09:20:04 84° NE 09:24:51 10° SE
Cosmos 1674 Rocket 3.5 09:20:36 61° S 09:21:22 84° E 09:25:49 10° N
SL-24 R/B 4.4 09:21:52 55° WSW 09:22:19 58° W 09:27:04 10° NNW
Lacrosse 5 rocket 1.3 09:20:40 10° NW 09:24:38 73° NE 09:28:23 10° SE
Cosmos 1814 Rocket 3.9 09:21:40 10° NNW 09:26:54 80° WSW 09:29:48 27° S
Okean 2 Rocket 3.7 09:22:48 10° N 09:27:07 54° E 09:30:06 19° SSE
Cosmos 2333 Rocket 2.3 09:24:49 10° NNW 09:30:34 80° ENE 09:36:18 10° SSE
Cosmos 1295 Rocket 4.3 09:30:42 32° SSW 09:33:45 81° W 09:39:52 10° N
Cosmos 405 Rocket 3.6 09:30:42 10° N 09:34:10 44° E 09:36:44 17° SSE
Cosmos 2322 Rocket 2.1 09:28:41 10° NNW 09:34:16 62° WSW 09:37:44 23° S
Meteor 2-5 Rocket 4.3 09:32:53 36° WSW 09:34:16 42° WNW 09:39:54 10° N
Cosmos 2297 Rocket 4.1 09:31:00 10° SSE 09:35:24 24° ESE 09:39:49 10° NE
ATLAS CENTAUR R/B 1.3 09:36:07 48° SSE 09:36:35 52° ESE 09:39:59 10° NE
Cosmos 1378 Rocket 3.7 09:38:01 45° W 09:38:24 47° W 09:42:33 10° N
Cosmos 1486 Rocket 4.1 09:36:16 29° S 09:38:54 72° ESE 09:44:04 10° NNE
ALOS 2.7 09:38:26 10° N 09:42:47 42° WNW 09:43:48 37° WSW
SJ 16-02 3.3 09:43:39 15° WNW 09:43:39 15° WNW 09:46:01 10° NNW
ADEOS II 3.4 09:43:22 10° NNW 09:47:27 24° WNW 09:48:35 22° W
Cosmos 2074 Rocket 4.3 09:47:33 29° SW 09:50:22 49° W 09:56:22 10° N
Meteor 1-28 Rocket 4.4 09:51:23 25° WNW 09:51:23 25° WNW 09:53:35 10° NW
Okean 1 Rocket 3.3 09:48:37 10° N 09:52:55 66° E 09:57:11 10° SSE
UNK 3.7 09:51:37 19° S 09:54:52 65° WSW 09:59:29 10° NNW
COSMOS 2455 3.9 09:50:48 10° S 09:56:18 40° ESE 10:01:52 10° NE
METEOR-M 4.1 09:53:08 10° N 09:58:28 74° WNW 10:02:09 21° SSW
CZ-2C R/B 2.3 09:54:35 10° NNE 09:59:18 77° ESE 10:02:58 16° S
IRS-1D 3.9 09:57:10 10° NNE 10:02:28 68° ESE 10:07:40 10° S
Envisat 3.0 09:58:10 10° N 10:03:11 64° WNW 10:06:34 21° SSW
CZ-4C R/B 3.6 10:05:20 10° SSE 10:08:30 22° ESE 10:12:02 10° ENE
Delta 2 Rocket 4.2 10:08:34 21° WSW 10:12:16 47° S 10:18:01 10° ESE
RESURS DK-1 2.5 10:08:59 10° NW 10:12:52 45° WSW 10:16:44 10° S
Atlas Centaur 2 2.3 10:14:56 20° SSW 10:16:40 28° SSE 10:19:49 10° ESE
SL-16 R/B 3.9 10:15:49 10° WNW 10:17:48 13° W 10:17:48 13° W
Cosmos 2322 4.1 10:15:18 10° NNW 10:20:59 67° ENE 10:26:35 10° SSE
Cosmos 1825 3.5 10:20:53 18° W 10:21:31 19° WNW 10:24:01 10° NNW
Cosmos 1975 Rocket 3.1 10:18:20 10° S 10:22:37 77° E 10:26:55 10° N
Nadezhda 3 Rocket 4.2 10:20:41 10° NNW 10:26:49 52° W 10:32:52 10° SSW
Thor Agena Rocket 3.6 10:25:20 10° N 10:30:31 65° WNW 10:35:43 10° SSW
Cosmos 2219 Rocket 2.3 10:25:54 10° NNW 10:31:23 53° WSW 10:36:51 10° S
YAOGAN 6 3.0 10:29:19 10° N 10:32:22 36° WNW 10:34:44 15° SW
SL-24 DEB 4.3 10:29:07 10° N 10:33:31 54° W 10:37:54 10° SSW
SL-16 R/B 3.7 10:32:02 12° SW 10:35:58 21° W 10:40:34 10° NW
Cosmos 2341 Rocket 4.0 10:30:16 10° S 10:36:32 74° W 10:42:46 10° N
OAO 3 Rocket 3.2 10:33:38 10° WNW 10:38:28 64° SSW 10:43:17 10° ESE
Cosmos 2360 Rocket 3.5 10:36:08 10° NW 10:40:06 20° W 10:44:02 10° SW
DELTA 2 R/B (1) 3.6 10:35:09 10° WNW 10:40:43 88° SSW 10:46:16 10° ESE
COSMOS 2428 2.9 10:35:40 10° NNW 10:41:21 80° ENE 10:47:02 10° SSE
Cosmos 2366 rocket 4.1 10:36:30 10° S 10:42:50 83° W 10:49:13 10° N
Tiangong 0.1 10:41:08 10° WNW 10:43:28 19° NNW 10:45:48 10° NE
ATLAS 2AS CENTAUR R/B 2.6 10:38:50 10° NNW 10:45:31 73° WSW 10:52:02 10° SSE
Cosmos 1025 Rocket 4.2 10:42:30 11° SW 10:45:53 25° WNW 10:49:30 10° NNW
Geosat 4.2 10:41:25 10° S 10:46:12 48° WSW 10:51:03 10° NW
ASTEX 1 3.9 10:42:31 10° SSW 10:47:07 39° W 10:51:43 10° NNW
H-2A R/B 2.3 10:45:14 10° NNE 10:50:42 83° ESE 10:56:06 10° S
In-Cosmos 22 Rocket 4.2 10:46:26 10° SSW 10:51:47 63° W 10:57:19 10° N
Cosmos 1455 Rocket 3.1 10:49:42 10° NNW 10:54:01 58° W 10:58:19 10° S
Cosmos 2237 Rocket 4.0 10:49:37 10° N 10:54:52 37° ENE 11:00:03 10° SE
H-2A R/B 4.2 10:52:31 10° NE 10:55:22 30° E 10:58:14 10° SSE
Cosmos 2227 Rocket 2.6 10:50:06 10° S 10:55:41 66° ESE 11:01:18 10° NNE
ARIANE 5 R/B 4.4 10:52:25 10° NE 10:56:49 30° E 11:01:10 10° SSE
DNEPR-1 R/B 4.4 10:55:05 10° NNW 11:01:21 78° ENE 11:06:21 10° SSE
